This is the latest recevied weather packets stored in our database for station/object W4SKW. If no packets are shown the sender has not sent any weather packets the latest 10 day(s).
| Time | Temp. | Humidity | Pressure | Rain* | Wind** | Luminosity | Snow |
|---|---|---|---|---|---|---|---|
| 1777755818 | 19.44° C | 39% | 1015.3 hPa | 0 mm | - | 572 W/m² | - |
| 1777755515 | 19.44° C | 39% | 1015.3 hPa | 0 mm | - | 572 W/m² | - |
| 1777755211 | 20° C | 36% | 1015.4 hPa | 0 mm | - | 164 W/m² | - |
| 1777754908 | 20.56° C | 37% | 1015.2 hPa | 0 mm | - | 500 W/m² | - |
| 1777754605 | 20° C | 35% | 1015.3 hPa | 0 mm | - | 601 W/m² | - |
| 1777754303 | 20° C | 40% | 1015.3 hPa | 0 mm | - | 140 W/m² | - |
| 1777754000 | 20.56° C | 40% | 1015.3 hPa | 0 mm | - | 574 W/m² | - |
| 1777753695 | 20.56° C | 43% | 1015.4 hPa | 0 mm | - | 577 W/m² | - |
| 1777753393 | 20.56° C | 37% | 1015.5 hPa | 0 mm | - | 611 W/m² | - |
| 1777753091 | 19.44° C | 38% | 1015.3 hPa | 0 mm | - | 644 W/m² | - |
| 1777752787 | 20° C | 37% | 1015.5 hPa | 0 mm | - | 665 W/m² | - |
| 1777752483 | 20° C | 37% | 1015.5 hPa | 0 mm | - | 648 W/m² | - |
| 1777752179 | 20° C | 42% | 1015.5 hPa | 0 mm | - | 650 W/m² | - |
| 1777751877 | 19.44° C | 37% | 1015.4 hPa | 0 mm | - | 643 W/m² | - |
| 1777751574 | 18.89° C | 41% | 1015.3 hPa | 0 mm | - | 701 W/m² | - |
| 1777751270 | 19.44° C | 40% | 1015.4 hPa | 0 mm | - | 507 W/m² | - |
| 1777750967 | 19.44° C | 40% | 1015.6 hPa | 0 mm | - | 729 W/m² | - |
| 1777750663 | 18.89° C | 42% | 1015.7 hPa | 0 mm | - | 568 W/m² | - |
| 1777750361 | 17.78° C | 39% | 1015.8 hPa | 0 mm | - | 729 W/m² | - |
| 1777750061 | 18.89° C | 39% | 1015.8 hPa | 0 mm | - | 412 W/m² | - |
| 1777749758 | 18.89° C | 39% | 1015.7 hPa | 0 mm | - | 453 W/m² | - |
| 1777749455 | 18.89° C | 40% | 1015.9 hPa | 0 mm | - | 468 W/m² | - |
| 1777749153 | 17.78° C | 41% | 1015.8 hPa | 0 mm | - | 605 W/m² | - |
| 1777748850 | 17.78° C | 47% | 1015.7 hPa | 0 mm | - | 408 W/m² | - |
| 1777748548 | 18.89° C | 37% | 1015.9 hPa | 0 mm | - | 439 W/m² | - |
* Rain latest hour (hover to see other rain measurements)
** Current wind speed in m/s (hover to see current wind gust speed)